Flag for Germany Weather past 2 weeks in Darmstadt, Hesse, Germany

Now
55 °F

Clear.


Feels Like: 53 °F
Forecast: 46 / 57 °F
Wind: 8 mph from Northwest

Location: Frankfurt-M-Flughafen Airport

Current Time: Sep 22, 2014 at 1:09:27 AM

Latest Report: Sep 22, 2014 at 12:20 AM


Visibility: 10 mi

Pressure: 30.07 "Hg

Humidity: 88%

Dew point: 52 °F

Location of DarmstadtLocation

Historic Weather in Darmstadt — Graph

°F

Darmstadt temperature yesterday

Maximum temperature yesterday: 66 °F (at 1:50 PM)
Minimum temperature yesterday: 55 °F (at 11:20 PM)
Average temperature yesterday: 61 °F

Past Weeks' High & Low Weather Summary

 TemperatureHumidityPressure
High77 °F (Sep 17, 3:50 PM)100% (Sep 7, 1:50 AM)30.18 "Hg (Sep 7, 1:50 AM)
Low46 °F (Sep 11, 2:20 AM)46% (Sep 9, 5:50 PM)29.86 "Hg (Sep 17, 4:50 PM)
Average63 °F83%30.01 "Hg
* Reported Sep 6 11:20 PM — Sep 21 11:50 PM, Darmstadt, Weather by CustomWeather, © 2014

Note: Actual official high and low records may vary slightly from our data, if they occured in-between our weather recording intervals... More about our weather records

Advertising

Darmstadt weather history for previous 24 hours

 ConditionsComfort  
Time TempWeatherWind HumidityBarometerVisibility
11:50 PM
Sep 21
55 °FClear.7 mph88%30.07 "Hg10 mi
11:20 PM55 °FClear.9 mph88%30.07 "Hg10 mi
10:20 PM57 °FClear.10 mph88%30.07 "Hg10 mi
9:50 PM59 °FClear.9 mph82%30.07 "Hg10 mi
9:20 PM59 °FPassing clouds.10 mph82%30.04 "HgN/A
8:50 PM59 °FPassing clouds.9 mph88%30.04 "HgN/A
8:20 PM61 °FPartly sunny.6 mph83%30.01 "HgN/A
7:50 PM61 °FPartly sunny.7 mph83%30.01 "HgN/A
7:20 PM61 °FBroken clouds.6 mph88%30.01 "HgN/A
6:50 PM63 °FBroken clouds.6 mph88%29.98 "HgN/A
6:20 PM63 °FScattered showers. Broken clouds.6 mph88%29.98 "HgN/A
5:50 PM63 °FSprinkles. Partly sunny.6 mph88%29.98 "HgN/A
5:20 PM63 °FScattered showers. Broken clouds.5 mph88%29.98 "HgN/A
4:20 PM63 °FLight rain. Broken clouds.7 mph94%29.98 "HgN/A
3:50 PM63 °FLight rain. Broken clouds.7 mph94%29.95 "HgN/A
3:20 PM63 °FSprinkles. Broken clouds.8 mph88%29.95 "HgN/A
2:50 PM64 °FRain showers. Broken clouds.8 mph88%29.95 "Hg5 mi
2:20 PM64 °FSprinkles. Broken clouds.9 mph94%29.95 "HgN/A
1:50 PM66 °FBroken clouds.7 mph88%29.95 "HgN/A
1:20 PM64 °FLight rain. Broken clouds.7 mph94%29.95 "HgN/A
12:50 PM64 °FBroken clouds.8 mph94%29.98 "HgN/A
12:20 PM63 °FLight rain. Broken clouds.7 mph100%29.98 "HgN/A
11:20 AM63 °FLight rain. Partly sunny.9 mph100%29.98 "HgN/A
10:50 AM63 °FLight rain. Partly sunny.9 mph100%29.98 "HgN/A
10:20 AM63 °FLight rain. Partly sunny.7 mph100%29.98 "HgN/A
9:50 AM61 °FLight rain. Partly sunny.7 mph100%29.95 "HgN/A
9:20 AM61 °FLight rain. Partly sunny.5 mph100%29.95 "Hg5 mi
8:50 AM61 °FLight rain. Broken clouds.7 mph100%29.95 "Hg4 mi
8:20 AM61 °FRain. Broken clouds.6 mph100%29.95 "Hg3 mi
7:50 AM61 °FRain. Passing clouds.5 mph100%29.95 "Hg3 mi
7:20 AM61 °FLight rain. Partly cloudy.6 mph100%29.95 "Hg4 mi
6:50 AM61 °FLight rain. Partly cloudy.6 mph100%29.95 "HgN/A
6:20 AM61 °FLight rain. Passing clouds.8 mph100%29.95 "Hg6 mi
5:50 AM61 °FPassing clouds.7 mph100%29.95 "HgN/A
5:20 AM61 °FPartly cloudy.6 mph100%29.95 "HgN/A
4:50 AM61 °FPassing clouds.2 mph100%29.95 "HgN/A
4:20 AM61 °FPartly cloudy.3 mph100%29.95 "HgN/A
3:50 AM61 °FPartly cloudy.5 mph100%29.95 "HgN/A
3:20 AM61 °FPassing clouds.3 mph100%29.98 "HgN/A
2:50 AM61 °FPassing clouds.7 mph100%29.98 "HgN/A
2:20 AM61 °FPartly cloudy.3 mph100%29.98 "HgN/A
1:50 AM61 °FPartly cloudy.3 mph100%29.95 "HgN/A
1:20 AM61 °FPartly cloudy.6 mph100%29.98 "HgN/A
Weather by CustomWeather, © 2014

See weather overviewHow to use our weather pages